Retour au catalogue

SL-8 DEB

ActifLEO
NORAD 21172·DEBRIS·🇷🇺 Russia

Lancé Feb 12, 1991 depuis Plesetsk Cosmodrome

Loading…

Prochains Passages (prochaines 24 heures)

TLE

FraisSource: Space-Track

Époque: Sep 14, 2026, 12:57 UTC

1 21172U 91009AK  26257.53966620 -.00000015  00000-0  34396-5 0  9998
2 21172  74.0352 189.6504 0134036 236.2493 237.6646 12.27725885592215

Suivez SL-8 DEB en temps réel avec AllMySat

Download on the App Store